Weather History for Dansville, NY

Change the Weather History Date:

Thursday, February 6, 2014

  Actual Average Record
Temperature  
Mean Temperature 14 °F -  
Max Temperature 21 °F 30 °F 55 °F (1991)
Min Temperature 6 °F 12 °F -4 °F (1974)
Degree Days  
Heating Degree Days 52    
Moisture  
Dew Point 9 °F    
Average Humidity 80    
Maximum Humidity 96    
Minimum Humidity 55    
Precipitation  
Precipitation 0.00 in - - ()
Sea Level Pressure  
Sea Level Pressure 30.29 in    
Wind  
Wind Speed 5 mph (NW)    
Max Wind Speed 13 mph    
Max Gust Speed -    
Visibility 6 miles    
Events Snow    
Averages and records for this station are not official NWS values.
T = Trace of Precipitation, MM = Missing Value Source: NWS Daily Summary

Daily Weather History Graph

Daily Weather History Graph

Search for Another Location

Airport:

Trip Planner

Search our weather history database for the weather conditions in past years. The results will help you decide how hot, cold, wet, or windy it might be!

Date:

Astronomy

Feb. 06, 2014 Rise Set
Actual Time 7:19 AM EST 5:31 PM EST
Civil Twilight 6:49 AM EST 6:00 PM EST
Nautical Twilight 6:16 AM EST 6:34 PM EST
Astronomical Twilight 5:43 AM EST 7:06 PM EST
Moon 11:01 AM EST (2/6) 12:32 AM EST (2/6)
Length of Visible Light 11h 10m
Length of Day
10h 11m
Waxing Crescent, 49% of the Moon is Illuminated
Feb 6
Waxing Crescent
Feb 6
First Quarter
Feb 14
Full
Feb 22
Last Quarter
Mar 1
New

Hourly Weather History & Observations

Time (EST) Temp. Windchill Dew Point Humidity Pressure Visibility Wind Dir Wind Speed Gust Speed Precip Events Conditions
12:19 AM 17.6 °F 4.3 °F 12.2 °F 79% 30.20 in 5.0 mi NW 12.7 mph - 0.00 in Snow Light Snow
12:43 AM 17.6 °F 5.7 °F 12.2 °F 79% 30.19 in 2.0 mi NNW 10.4 mph - 0.00 in Snow Light Snow
12:54 AM 16.0 °F 4.4 °F 12.9 °F 88% 30.26 in 2.0 mi NW 9.2 mph - 0.00 in Snow Light Snow
1:18 AM 15.8 °F 3.4 °F 12.2 °F 86% 30.21 in 4.0 mi NW 10.4 mph - 0.00 in Snow Light Snow
1:38 AM 15.8 °F 5.1 °F 12.2 °F 86% 30.22 in 3.0 mi NNW 8.1 mph - 0.00 in Snow Light Snow
1:54 AM 15.1 °F 5.2 °F 12.0 °F 88% 30.28 in 5.0 mi NNW 6.9 mph - 0.00 in Snow Light Snow
2:54 AM 14.0 °F - 10.9 °F 88% 30.30 in 5.0 mi Calm Calm - 0.00 in Snow Light Snow
3:20 AM 14.0 °F - 10.4 °F 86% 30.24 in 2.5 mi Calm Calm - 0.00 in Snow Light Snow
3:32 AM 14.0 °F - 10.4 °F 86% 30.24 in 1.8 mi Calm Calm - 0.00 in Snow Light Snow
3:45 AM 14.0 °F - 10.4 °F 86% 30.24 in 2.5 mi Calm Calm - 0.00 in Snow Light Snow
3:54 AM 12.9 °F - 10.9 °F 92% 30.31 in 2.5 mi Calm Calm - 0.00 in Snow Light Snow
4:01 AM 12.2 °F - 10.4 °F 92% 30.25 in 3.0 mi Calm Calm - 0.00 in Snow Light Snow
4:54 AM 12.9 °F - 10.0 °F 88% 30.33 in 4.0 mi Calm Calm - 0.00 in Snow Light Snow
5:46 AM 12.2 °F - 8.6 °F 85% 30.26 in 3.0 mi Calm Calm - 0.00 in Snow Light Snow
5:54 AM 12.0 °F - 9.0 °F 88% 30.33 in 4.0 mi Calm Calm - 0.00 in Snow Light Snow
6:29 AM 6.8 °F - 5.0 °F 92% 30.28 in 5.0 mi Calm Calm - 0.00 in   Partly Cloudy
6:54 AM 7.0 °F - 3.9 °F 87% 30.35 in 10.0 mi Calm Calm - 0.00 in   Mostly Cloudy
7:54 AM 7.0 °F - 3.9 °F 87% 30.37 in 6.0 mi Calm Calm - 0.00 in   Overcast
8:16 AM 6.8 °F - 5.0 °F 92% 30.31 in 7.0 mi Calm Calm - N/A   Overcast
8:54 AM 7.0 °F 0.1 °F 6.1 °F 96% 30.39 in 10.0 mi ESE 3.5 mph - N/A   Scattered Clouds
9:54 AM 9.0 °F 2.4 °F 6.1 °F 88% 30.38 in 9.0 mi NNW 3.5 mph - 0.00 in Snow Light Snow
10:54 AM 12.9 °F 5.2 °F 6.1 °F 74% 30.38 in 4.0 mi North 4.6 mph - 0.00 in   Haze
11:54 AM 18.0 °F 6.9 °F 7.0 °F 62% 30.37 in 10.0 mi NW 9.2 mph - 0.00 in   Mostly Cloudy
12:54 PM 19.0 °F 11.1 °F 7.0 °F 59% 30.34 in 10.0 mi Variable 5.8 mph - 0.00 in   Mostly Cloudy
1:54 PM 19.9 °F 10.1 °F 8.1 °F 60% 30.32 in 10.0 mi NW 8.1 mph - N/A   Overcast
2:54 PM 21.0 °F 14.6 °F 9.0 °F 60% 30.31 in 10.0 mi Variable 4.6 mph - N/A   Overcast
3:54 PM 19.9 °F 12.1 °F 8.1 °F 60% 30.28 in 10.0 mi NNW 5.8 mph - N/A   Clear
4:54 PM 21.9 °F 17.2 °F 8.1 °F 55% 30.28 in 10.0 mi West 3.5 mph - N/A   Overcast
5:54 PM 19.9 °F 14.9 °F 9.0 °F 62% 30.30 in 10.0 mi NW 3.5 mph - N/A   Overcast
6:54 PM 18.0 °F 8.7 °F 10.0 °F 71% 30.30 in 10.0 mi NNW 6.9 mph - N/A   Overcast
7:54 PM 17.1 °F 10.0 °F 10.0 °F 74% 30.28 in 9.0 mi WNW 4.6 mph - N/A   Overcast
8:54 PM 16.0 °F - 9.0 °F 74% 30.29 in 10.0 mi Calm Calm - N/A   Overcast
9:54 PM 14.0 °F - 9.0 °F 80% 30.27 in 10.0 mi Calm Calm - N/A   Overcast
10:54 PM 15.1 °F 7.7 °F 10.9 °F 84% 30.27 in 9.0 mi South 4.6 mph - N/A   Overcast
11:54 PM 17.1 °F 11.7 °F 12.0 °F 81% 30.25 in 9.0 mi South 3.5 mph - N/A   Overcast